Location: ?kun?ru
(16.3916°N, 80.8194°E)
Time: 14:34:10
(UTC+00:00)

Resurs 1-3 - Pass Details

Date: 19 May 2025
Orbit: 614 x 617 km, 97.7° (Epoch: 17 June)

Event Time Altitude Azimuth Distance (km) Brightness Sun altitude
Rises 13:23:50 0° 158° (SSE) 2,874 6.6 -5.8°
Reaches altitude 10° 13:26:03 10° 152° (SSE) 1,971 5.7 -6.3°
Maximum altitude 13:30:12 50° 77° (ENE) 784 3.8 -7.2°
Drops below altitude 10° 13:34:21 10° 2° (N) 1,974 6.4 -8.1°
Sets 13:36:35 0° 357° (N) 2,880 7.4 -8.6°
